[[{"header":{"parameterUnit":"m.s-1","parameterCategory":1,"la1":30.2991,"la2":30.254,"lo1":-89.0895,"lo2":-89.0444,"dy":0.0017,"dx":0.0017,"nx":28,"ny":28,"refTime":"2025-08-21T09:00:00:Z","depth":0,"parameterNumber":2,"parameterNumberName":"U-component_of_WINDS"},"data":[0,0,0,0,0,0,0,0,0,0,0,0,0,0,0,0,0,0,0,0,0,0,0,0,0,0,0,0,0,0,0,0,0,0,0,0,0,0,0,0,0,0,0,0,0,0,0,0,0,0,0,0,0,0,0,0,0,0,0.2069,0.207,0,0.2215,0.2217,0.2219,0.2294,0.2294,0.2294,0.2294,0.2444,0.2448,0.2452,0,0,0,0,0,0,0,0,0,0,0,0,0,0.1853,0.1857,0.2068,0.207,0.2072,0.2215,0.2217,0.2219,0.2294,0.2294,0.2294,0.2294,0.2443,0.2448,0.2453,0,0,0,0,0,0,0,0,0,0,0,0,0,0.1968,0.1858,0.2068,0.2127,0.2133,0.2215,0.2217,0.222,0.2294,0.2294,0.2294,0.2294,0.2442,0.2447,0.2453,0.2488,0,0,0.2471,0.2474,0,0,0,0,0,0,0,0,0.1961,0.1976,0.2116,0.2123,0.213,0.2236,0.2197,0.231,0.2294,0.2233,0.2294,0.2294,0.2375,0.2387,0.2414,0.2495,0.2501,0.2472,0.2475,0.2478,0.248,0,0,0,0,0,0,0,0.1953,0.197,0.2127,0.2118,0.2127,0.2146,0.2162,0.2218,0.2302,0.2238,0.2244,0.226,0.2379,0.2408,0.2418,0.2504,0.2472,0.2477,0.2481,0.2483,0.2621,0.2621,0,0,0,0,0,0,0.1936,0.1963,0.2122,0.2131,0.2044,0.2149,0.2168,0.2202,0.2301,0.2316,0.226,0.2263,0.2398,0.2411,0.2424,0.2471,0.2478,0.2484,0.2487,0.2621,0.2621,0.2621,0,0,0,0,0,0,0.1931,0.1949,0.2116,0.2049,0.2071,0.2153,0.2191,0.2205,0.2234,0.2318,0.2333,0.2274,0.2398,0.2415,0.2471,0.2477,0.2486,0.2492,0.2621,0.2621,0.2621,0.2566,0,0,0,0,0,0,0.1924,0.1947,0.1961,0.2048,0.2074,0.2161,0.2191,0.2208,0.2244,0.225,0.2335,0.2349,0.24,0.2462,0.2477,0.2486,0.2496,0.2621,0.2621,0.2621,0.2567,0.2564,0.2561,0,0,0,0,0,0.1916,0.1939,0.1961,0.198,0.2094,0.2161,0.2176,0.2234,0.2244,0.2259,0.2313,0.2347,0.2474,0.2467,0.2485,0.2495,0.2621,0.2621,0.2621,0.2569,0.2564,0.2561,0,0,0,0,0,0,0.1851,0.1952,0.1977,0.2029,0.2086,0.2174,0.2194,0.2227,0.2283,0.2285,0.2354,0.2373,0.2423,0.2465,0.2455,0.2534,0.2551,0.2554,0.2505,0.2502,0.2498,0.2487,0.2501,0,0,0,0,0,0.1842,0.1889,0.1975,0.2012,0.204,0.2112,0.2143,0.2183,0.2244,0.2269,0.2327,0.2385,0.2439,0.2473,0.2526,0.2574,0.2593,0.2589,0.2586,0.2583,0.2585,0.2614,0.2613,0.2622,0.2622,0.2622,0,0,0.1825,0.1886,0.1911,0.2001,0.2049,0.2096,0.2131,0.2179,0.2215,0.2276,0.2333,0.2377,0.2447,0.2499,0.2525,0.2536,0.2587,0.2583,0.258,0.2585,0.2614,0.2613,0.2612,0.2622,0.2622,0.2622,0,0,0.1818,0.1869,0.1906,0.1954,0.2027,0.2075,0.2084,0.2167,0.2199,0.2257,0.2304,0.2347,0.2437,0.2485,0.2522,0.2533,0.2566,0.2548,0.2532,0.2558,0.2558,0.2557,0.2561,0.2562,0.255,0.255,0.255,0,0.1788,0.186,0.1921,0.1966,0.2004,0.2062,0.21,0.2143,0.223,0.2255,0.2266,0.2381,0.2432,0.2496,0.2499,0.2526,0.2538,0.2539,0.2553,0.2553,0.2554,0.2559,0.256,0.2548,0.2548,0.2548,0.2549,0,0.1819,0.1868,0.1889,0.1972,0.2012,0.2053,0.2121,0.2154,0.219,0.2237,0.2295,0.2358,0.2426,0.2444,0.248,0.2513,0.2518,0.254,0.2558,0.2549,0.2555,0.2557,0.2544,0.2545,0.2546,0.2546,0,0,0.1774,0.189,0.1897,0.1935,0.202,0.206,0.2104,0.217,0.2197,0.2255,0.2294,0.2369,0.239,0.2431,0.2473,0.2496,0.2501,0.2515,0.2518,0.251,0.2542,0.2525,0.2526,0.2523,0.2524,0.2525,0.2536,0,0.1779,0.1861,0.1917,0.1977,0.2023,0.2079,0.2117,0.2174,0.2218,0.2265,0.2314,0.2367,0.239,0.2415,0.2441,0.2495,0.2508,0.2495,0.256,0.2562,0.2541,0.2529,0.2511,0.2519,0.2539,0.2539,0.254,0,0.1795,0.1852,0.1916,0.1997,0.2018,0.2052,0.2117,0.216,0.2226,0.2257,0.2302,0.2345,0.2394,0.2407,0.2476,0.2466,0.2496,0.2526,0.2528,0.2536,0.255,0.2537,0.2523,0.2524,0.2544,0.2543,0.2543,0,0.1756,0.1848,0.1899,0.193,0.2025,0.2047,0.2088,0.2153,0.219,0.2247,0.2271,0.2333,0.2367,0.2414,0.2472,0.2476,0.2534,0.2553,0.2562,0.256,0.2571,0.257,0.2562,0.2591,0.2591,0.2591,0.259,0,0.1756,0.1793,0.1883,0.1913,0.1957,0.2021,0.2062,0.2108,0.2165,0.2206,0.2258,0.2296,0.237,0.2416,0.2462,0.2512,0.2527,0.2554,0.2565,0.2549,0.2546,0.257,0.2571,0.2591,0.2591,0.2591,0.2591,0,0.1719,0.1781,0.1839,0.1925,0.1947,0.1975,0.2048,0.2081,0.2129,0.218,0.2195,0.227,0.2328,0.239,0.2469,0.2499,0.2547,0.2564,0.2525,0.2531,0.2536,0.2535,0.2544,0.2548,0.2573,0.2573,0.2573,0,0.1714,0.1744,0.1833,0.1864,0.1903,0.1953,0.199,0.2055,0.2092,0.2168,0.2191,0.2253,0.2305,0.2394,0.2456,0.2516,0.2534,0.2533,0.2544,0.2526,0.2535,0.2532,0.2535,0.253,0.2529,0.2529,0.2529,0,0.17,0.1729,0.1781,0.1843,0.1886,0.1939,0.1993,0.2015,0.2091,0.213,0.2189,0.2229,0.231,0.237,0.2438,0.248,0.2517,0.2525,0.253,0.2514,0.249,0.2503,0.2516,0.2524,0.2525,0.2525,0.2525,0.2525,0.1679,0.1708,0.1775,0.1831,0.1879,0.1929,0.1964,0.2016,0.2066,0.2137,0.2172,0.2231,0.2296,0.2391,0.2432,0.2479,0.2491,0.2498,0.25,0.2501,0.2496,0.2482,0.2492,0.2492,0.2492,0.2492,0.2492,0,0.1667,0.1713,0.1764,0.1839,0.1883,0.1914,0.1976,0.201,0.2062,0.2119,0.217,0.2238,0.2297,0.2363,0.2426,0.2451,0.2469,0.2465,0.2464,0.2473,0.2482,0.2472,0.2449,0.2449,0.2449,0.2449,0.2449,0.2449,0.1666,0.1717,0.1754,0.183,0.1876,0.1934,0.1967,0.2013,0.2059,0.2133,0.2182,0.2225,0.2286,0.2354,0.2409,0.2427,0.2448,0.2439,0.2462,0.2469,0.2472,0.2476,0.2466,0.2443,0.2443,0.2449,0.2449,0.2449]},{"header":{"parameterUnit":"m.s-1","parameterCategory":1,"la1":30.2991,"la2":30.254,"lo1":-89.0895,"lo2":-89.0444,"dy":0.0017,"dx":0.0017,"nx":28,"ny":28,"refTime":"2025-08-21T09:00:00:Z","depth":0,"parameterNumber":3,"parameterNumberName":"V-component_of_WINDS"},"data":[0,0,0,0,0,0,0,0,0,0,0,0,0,0,0,0,0,0,0,0,0,0,0,0,0,0,0,0,0,0,0,0,0,0,0,0,0,0,0,0,0,0,0,0,0,0,0,0,0,0,0,0,0,0,0,0,0,0,3.8047,3.8047,0,3.8008,3.8007,3.8007,3.7924,3.7922,3.7921,3.7919,3.7881,3.7881,3.7882,0,0,0,0,0,0,0,0,0,0,0,0,0,3.8054,3.8054,3.8047,3.8047,3.8046,3.8008,3.8007,3.8007,3.7924,3.7922,3.792,3.7918,3.7881,3.7881,3.7882,0,0,0,0,0,0,0,0,0,0,0,0,0,3.8037,3.8054,3.8047,3.8001,3.7996,3.8008,3.8007,3.8007,3.7925,3.7922,3.792,3.7917,3.788,3.7881,3.7882,3.7937,0,0,3.7884,3.7885,0,0,0,0,0,0,0,0,3.8038,3.8036,3.8008,3.8004,3.7999,3.7968,3.7995,3.7983,3.7925,3.7952,3.7919,3.7916,3.7912,3.791,3.7908,3.7935,3.7934,3.7885,3.7885,3.7885,3.7886,0,0,0,0,0,0,0,3.8039,3.8038,3.8032,3.8008,3.8002,3.7982,3.7977,3.7993,3.7947,3.7949,3.7943,3.794,3.7909,3.7908,3.7907,3.7933,3.7884,3.7885,3.7886,3.7886,3.8003,3.8005,0,0,0,0,0,0,3.8047,3.8039,3.8033,3.803,3.8012,3.7984,3.7978,3.7981,3.7946,3.7938,3.7942,3.7936,3.7908,3.7906,3.7905,3.7966,3.7885,3.7886,3.7887,3.8,3.8003,3.8006,0,0,0,0,0,0,3.8047,3.8047,3.8035,3.8033,3.803,3.7987,3.799,3.7981,3.7979,3.794,3.7932,3.7949,3.7905,3.7904,3.7929,3.7964,3.7886,3.7887,3.7997,3.8001,3.8005,3.809,0,0,0,0,0,0,3.8048,3.8047,3.8067,3.8034,3.803,3.8059,3.7992,3.7982,3.7981,3.7973,3.7945,3.7938,3.7903,3.7929,3.793,3.7964,3.7888,3.7994,3.7999,3.8003,3.8084,3.8097,3.8107,0,0,0,0,0,3.8048,3.8094,3.8069,3.8068,3.8054,3.8061,3.8059,3.8018,3.7984,3.8004,3.7979,3.7938,3.796,3.7932,3.7933,3.7967,3.7991,3.7997,3.8003,3.8079,3.8094,3.8107,0,0,0,0,0,0,3.8133,3.8088,3.806,3.8096,3.8083,3.8047,3.8071,3.8036,3.8033,3.8025,3.7976,3.797,3.8002,3.7987,3.7957,3.8018,3.7969,3.7976,3.8027,3.8041,3.8052,3.8054,3.7888,0,0,0,0,0,3.8155,3.8164,3.8125,3.8161,3.8155,3.8115,3.8116,3.8086,3.807,3.8065,3.8041,3.8029,3.8032,3.8036,3.8037,3.8082,3.8075,3.8106,3.8118,3.8128,3.8133,3.8155,3.8169,3.8025,3.8025,3.8025,0,0,3.8202,3.8179,3.8188,3.8177,3.8163,3.8174,3.811,3.8124,3.8132,3.8067,3.8089,3.8072,3.8054,3.809,3.8104,3.8078,3.8171,3.8135,3.8143,3.8143,3.8163,3.8176,3.8188,3.8029,3.8029,3.8028,0,0,3.8293,3.8277,3.8304,3.8292,3.8271,3.8244,3.8251,3.8221,3.8206,3.8228,3.8179,3.8188,3.8196,3.8185,3.8181,3.8268,3.8231,3.8271,3.8331,3.8353,3.8364,3.8374,3.8404,3.8416,3.8277,3.8277,3.8277,0,3.8354,3.8368,3.8323,3.834,3.8336,3.8278,3.8306,3.8296,3.8278,3.8277,3.8249,3.8257,3.8241,3.8273,3.8294,3.8293,3.8299,3.8273,3.8366,3.8375,3.8384,3.8412,3.8424,3.8282,3.8281,3.8281,3.828,0,3.8443,3.8454,3.8478,3.8461,3.8461,3.8483,3.8443,3.8448,3.8418,3.8394,3.8417,3.8396,3.8392,3.8397,3.8369,3.8425,3.841,3.8375,3.8324,3.8403,3.8429,3.844,3.8289,3.8287,3.8285,3.8284,0,0,3.8585,3.8543,3.8553,3.8544,3.8518,3.8525,3.8546,3.8541,3.8546,3.8536,3.8551,3.856,3.8527,3.8522,3.8492,3.8512,3.8582,3.8473,3.8472,3.8494,3.8642,3.8668,3.8681,3.8557,3.8559,3.8561,3.8643,0,3.8669,3.87,3.8661,3.87,3.8709,3.8654,3.8671,3.8658,3.8636,3.8641,3.8617,3.8623,3.858,3.8577,3.8594,3.857,3.8611,3.8563,3.8571,3.8572,3.8576,3.8695,3.8722,3.8801,3.8653,3.8655,3.8656,0,3.8771,3.8764,3.8805,3.8776,3.8778,3.8794,3.8787,3.8792,3.8776,3.8759,3.8754,3.8718,3.8736,3.8688,3.8712,3.8681,3.8682,3.8671,3.8673,3.8671,3.8618,3.8696,3.8825,3.8837,3.8672,3.867,3.8669,0,3.8869,3.8871,3.8895,3.8889,3.8857,3.8869,3.8856,3.8837,3.8837,3.8831,3.8831,3.8828,3.8826,3.8824,3.8788,3.8757,3.8817,3.8766,3.8804,3.8805,3.8818,3.8817,3.8948,3.8821,3.882,3.882,3.882,0,3.8966,3.8993,3.8938,3.8953,3.8982,3.8937,3.8967,3.8948,3.8932,3.8943,3.8896,3.8907,3.8859,3.8866,3.8838,3.8862,3.8862,3.8849,3.8841,3.8852,3.8854,3.8852,3.8845,3.8823,3.8823,3.8822,3.8822,0,3.908,3.9045,3.9067,3.9034,3.9027,3.9049,3.9021,3.9034,3.9009,3.9024,3.9024,3.8987,3.8992,3.8956,3.8955,3.8936,3.8973,3.8957,3.8979,3.8973,3.9012,3.9009,3.9146,3.9161,3.9025,3.9026,3.9027,0,3.9144,3.9162,3.9132,3.9135,3.9124,3.9131,3.913,3.9087,3.9089,3.9072,3.9087,3.9088,3.9086,3.9097,3.907,3.9068,3.9051,3.9099,3.905,3.9061,3.9051,3.905,3.9051,3.9109,3.9111,3.9112,3.9113,0,3.926,3.9242,3.9242,3.9237,3.9238,3.9232,3.9223,3.9228,3.9182,3.9186,3.919,3.9189,3.9188,3.9189,3.9183,3.917,3.9134,3.9129,3.9137,3.9149,3.916,3.9154,3.9005,3.9126,3.9124,3.9123,3.9123,3.9122,3.935,3.9364,3.9345,3.9347,3.9336,3.9328,3.9339,3.9315,3.9318,3.9313,3.9288,3.9297,3.928,3.9268,3.9258,3.9265,3.9242,3.9254,3.9257,3.9261,3.9268,3.916,3.9264,3.9263,3.9263,3.9263,3.9262,0,3.9464,3.9448,3.9451,3.9439,3.9442,3.9407,3.9396,3.94,3.9408,3.9395,3.9395,3.94,3.9401,3.9374,3.9373,3.9383,3.9367,3.9384,3.9382,3.938,3.9289,3.9281,3.9397,3.9397,3.9397,3.9397,3.9397,3.9397,3.9523,3.9545,3.9525,3.9541,3.9526,3.9533,3.953,3.9523,3.9512,3.952,3.9521,3.9503,3.9485,3.9481,3.9482,3.9474,3.9475,3.9498,3.9485,3.94,3.9387,3.9374,3.9367,3.9499,3.9499,3.9575,3.9576,3.9576]}]]